{"data":{"norad_id":66839,"intl_designator":"2025-280U","name":"STARLINK-35717","alt_names":[],"object_type":"PAYLOAD","status":"ACTIVE","operator":null,"country":"US","launch_date":"2025-12-02","launch_site_code":"AFWTR","launch_vehicle":null,"mission":null,"orbit_class":"UNKNOWN","rcs_meters":null,"size_class":null,"mass_kg":null,"dimensions":null,"purposes":["comms"],"wikipedia_slug":null,"has_3d_model":false,"image_url":null,"decayed_at":null,"tle_current":{"epoch":"2026-05-25T02:42:45.343584Z","epoch_age_seconds":58574,"freshness":"FRESH","line1":"1 66839U 25280U   26145.11302481  .00002282  00000+0  19898-3 0  9998","line2":"2 66839  70.0007 141.7544 0004039 265.0653  95.0045 14.98334883 27527","mean_motion":14.98334883,"eccentricity":0.0004039,"inclination_deg":70.0007,"raan_deg":141.7544,"arg_perigee_deg":265.0653,"mean_anomaly_deg":95.0045,"bstar":0.00019898,"rev_number":2752,"period_min":96.10668591769,"perigee_km":569.23361390106,"apogee_km":574.84796752039,"semimajor_km":6950.1777907107,"source":"CELESTRAK","updated_at":"2026-05-25T13:38:21.337571Z"}}}